Location: ASU Dark Sky Observatory
(36.2504°N, 81.4125°W)
Time: 12:43:41
(UTC-05:00)

Amateur Radio Satellites - All Passes

Search period start: 21 November 2014 12:13
Search period end: 22 November 2014 12:13
Location: ASU Dark Sky Observatory, 36.2504°N, 81.4125°W

Satellite Date Start Highest point End Downlink Frequencies (MHz)
Time Altitude Azimuth
Oscar 19 21 Nov 12:13:54 12:17:48 23° 67° (ENE) 12:21:43 437.125/150
CUBEBUG 1 21 Nov 12:22:02 12:25:58 33° 289° (WNW) 12:29:52 437.445
SPROUT 21 Nov 12:30:58 12:35:13 62° 101° (E) 12:39:26 437.525
50 SAT 21 Nov 12:33:34 12:33:54 10° 295° (WNW) 12:34:14 437.505
TISAT 1 21 Nov 12:37:38 12:41:52 88° 103° (ESE) 12:46:03 437.305
ITUPSAT 1 21 Nov 12:38:18 12:39:10 10° 91° (E) 12:40:02 437.325
ESTCUBE 1 21 Nov 12:43:07 12:46:29 21° 292° (WNW) 12:49:51 437.505/2401.250
SWISSCUBE 21 Nov 12:49:24 12:52:26 17° 93° (E) 12:55:27 437.505
ITAMSAT 1 21 Nov 12:55:13 12:59:11 22° 66° (ENE) 13:03:09 435.822/435.867
Gurwin Techsat 1B 21 Nov 12:58:40 13:01:05 13° 62° (ENE) 13:03:30 435.225
AUBIESAT-1 21 Nov 13:07:09 13:11:39 35° 102° (ESE) 13:16:04 437.475
M-CUBED/EXP-1 PRIME 21 Nov 13:08:31 13:13:10 40° 103° (ESE) 13:17:44 437.505
BEESAT 21 Nov 13:20:35 13:24:56 33° 98° (E) 13:29:14 436.000
YUBILEINY 21 Nov 13:27:13 13:34:37 30° 72° (ENE) 13:41:56 435.215
HORYU 2 21 Nov 13:46:20 13:48:36 14° 65° (ENE) 13:50:52 437.375
Oscar 19 21 Nov 13:52:10 13:56:53 38° 262° (W) 14:01:37 437.125/150
SO-50 21 Nov 13:58:26 14:03:12 52° 57° (ENE) 14:07:58 436.795
SPROUT 21 Nov 14:10:13 14:10:45 10° 296° (WNW) 14:11:16 437.525
ITUPSAT 1 21 Nov 14:12:42 14:17:29 68° 285° (WNW) 14:22:14 437.325
CUSAT 1 21 Nov 14:25:07 14:27:37 22° 281° (W) 14:29:51 437.405
SWISSCUBE 21 Nov 14:25:55 14:30:29 44° 288° (WNW) 14:35:00 437.505
DANDE 21 Nov 14:27:58 14:30:50 27° 280° (W) 14:33:18 436.750
ITAMSAT 1 21 Nov 14:33:30 14:38:22 40° 261° (W) 14:43:17 435.822/435.867
Gurwin Techsat 1B 21 Nov 14:35:05 14:40:23 72° 258° (WSW) 14:45:42 435.225
AO-7 21 Nov 14:40:20 14:47:28 34° 61° (ENE) 14:54:38 29.400- 29.500
STARS 21 Nov 14:41:00 14:44:56 32° 98° (E) 14:48:51 437.465
AUBIESAT-1 21 Nov 14:42:26 14:46:23 25° 296° (WNW) 14:50:20 437.475
M-CUBED/EXP-1 PRIME 21 Nov 14:44:07 14:47:54 23° 297° (WNW) 14:51:40 437.505
RS-15 21 Nov 14:56:15 15:00:56 14° 98° (E) 15:05:35 29.354- 29.394
BEESAT 21 Nov 14:58:51 15:02:33 23° 292° (WNW) 15:06:14 436.000
KKS-1 21 Nov 15:10:27 15:14:53 75° 284° (WNW) 15:19:17 437.445
HORYU 2 21 Nov 15:20:34 15:24:50 48° 260° (W) 15:29:08 437.375
YUBILEINY 21 Nov 15:23:22 15:31:43 53° 270° (W) 15:40:01 435.215
VERMONT LUNAR 21 Nov 15:39:42 15:42:34 22° 146° (SE) 15:45:27 437.305
SO-50 21 Nov 15:40:17 15:43:20 17° 252° (WSW) 15:46:22 436.795
MaSat-1 21 Nov 15:42:20 15:44:50 21° 109° (ESE) 15:47:10 437.345
JAS-2 21 Nov 15:52:55 15:59:13 31° 64° (ENE) 16:05:48 435.910
STARS 21 Nov 16:18:00 16:21:11 20° 292° (WNW) 16:24:22 437.465
AO-7 21 Nov 16:31:56 16:39:53 51° 258° (WSW) 16:47:56 29.400- 29.500
Cubesat XI-IV 21 Nov 16:35:39 16:38:22 14° 62° (ENE) 16:41:04 437.490
PHONESAT 2.4 21 Nov 16:45:41 16:49:16 48° 152° (SSE) 16:52:52 2401.200-2431.200
RS-15 21 Nov 17:00:22 17:11:20 77° 116° (ESE) 17:22:14 29.354- 29.394
O/OREOS (USA 219) 21 Nov 17:09:32 17:14:00 75° 69° (ENE) 17:18:28 437.305
MOZHAYETS 4 21 Nov 17:15:19 17:19:57 62° 101° (E) 17:24:32
CUTE-I 21 Nov 17:16:05 17:20:51 34° 69° (ENE) 17:25:37 437.470
VERMONT LUNAR 21 Nov 17:17:11 17:20:49 81° 340° (NNW) 17:24:28 437.305
MaSat-1 21 Nov 17:17:45 17:19:28 14° 299° (WNW) 17:21:07 437.345
JAS-2 21 Nov 17:36:38 17:43:44 53° 262° (W) 17:51:22 435.910
Cubesat XI-IV 21 Nov 18:12:28 18:17:49 70° 258° (WSW) 18:23:11 437.490
PHONESAT 2.4 21 Nov 18:24:27 18:28:06 52° 348° (NNW) 18:31:45 2401.200-2431.200
HO-68 21 Nov 18:36:44 18:38:47 11° 53° (NE) 18:40:50 435.675
PRISM 21 Nov 18:39:38 18:43:54 82° 284° (WNW) 18:48:07 437.425
CUBESAT XI-V 21 Nov 18:42:45 18:47:03 35° 97° (E) 18:51:17 437.345
STRAND 1 21 Nov 18:51:57 18:56:48 42° 99° (E) 19:01:36 437.568
MOZHAYETS 4 21 Nov 18:54:45 18:56:36 12° 296° (WNW) 18:58:27
VERMONT LUNAR 21 Nov 18:56:07 18:59:35 41° 357° (N) 19:03:02 437.305
CUTE-I 21 Nov 18:56:23 19:00:53 27° 264° (W) 19:05:24 437.470
RS-15 21 Nov 19:15:26 19:24:45 31° 319° (NW) 19:34:10 29.354- 29.394
GONETS M04 21 Nov 19:16:20 19:24:08 34° 73° (ENE) 19:31:49
AIST 1 21 Nov 19:22:34 19:24:25 13° 85° (E) 19:26:17
CANX-2 21 Nov 19:28:13 19:30:01 13° 66° (ENE) 19:31:49 2200.000
PCSat 21 Nov 19:41:57 19:45:41 19° 105° (ESE) 19:49:27 145.827
COMPASS 1 21 Nov 19:45:42 19:47:38 13° 66° (ENE) 19:49:35 437.405
CUTE 1.7 & AOD 2 21 Nov 20:01:31 20:05:06 28° 71° (ENE) 20:08:42 437.475
PHONESAT 2.4 21 Nov 20:03:42 20:07:17 43° 5° (N) 20:10:50 2401.200-2431.200
UKube-1 21 Nov 20:09:38 20:10:41 11° 64° (ENE) 20:11:44 .
HO-68 21 Nov 20:18:03 20:25:10 68° 71° (ENE) 20:32:18 435.675
CUBESAT XI-V 21 Nov 20:20:49 20:24:13 20° 292° (WNW) 20:27:36 437.345
Oscar 11 21 Nov 20:22:54 20:25:34 16° 67° (ENE) 20:28:15 145.826/435.025
DOVE 4 21 Nov 20:23:03 20:27:05 28° 71° (ENE) 20:30:55 437.250
STRAND 1 21 Nov 20:31:57 20:35:39 21° 294° (WNW) 20:39:20 437.568
VERMONT LUNAR 21 Nov 20:34:49 20:38:25 58° 14° (NNE) 20:42:00 437.305
DX 1 21 Nov 20:37:33 20:41:02 24° 69° (ENE) 20:44:32 434.975-435.025
SEEDS 21 Nov 20:40:09 20:44:18 71° 76° (ENE) 20:48:29 437.485
GOMX 1 21 Nov 20:41:43 20:46:39 61° 75° (ENE) 20:51:16 467.674
SHINDAISAT 21 Nov 20:43:25 20:45:20 71° 242° (WSW) 20:47:13 437.305
BRITE-PL 21 Nov 20:45:15 20:50:34 89° 257° (WSW) 20:55:29 437.365/2234.400
BEESAT 3 21 Nov 20:57:23 21:01:09 37° 114° (ESE) 21:04:58 437.485
AIST 1 21 Nov 20:57:24 21:01:36 45° 280° (W) 21:05:51
CANX-2 21 Nov 21:01:26 21:05:30 48° 261° (W) 21:09:36 2200.000
ZACube-1 21 Nov 21:02:12 21:05:11 19° 69° (ENE) 21:08:08 437.345
AAUSAT CUBESAT 2 21 Nov 21:06:53 21:11:01 74° 259° (WSW) 21:15:11 437.432
BEESAT 2 21 Nov 21:08:39 21:12:33 45° 115° (ESE) 21:16:32 435.950
AISAT 21 Nov 21:09:48 21:12:38 17° 66° (ENE) 21:15:28 437.250
GONETS M04 21 Nov 21:12:46 21:21:06 48° 271° (W) 21:29:22
COMPASS 1 21 Nov 21:18:59 21:22:57 45° 261° (W) 21:26:58 437.405
HUMSAT D 21 Nov 21:21:52 21:24:45 18° 69° (ENE) 21:27:37 437.325/437.525
AIST 2 21 Nov 21:21:55 21:25:36 30° 112° (ESE) 21:29:20 435.215
PCSat 21 Nov 21:23:26 21:28:40 50° 301° (WNW) 21:33:56 145.827
CINEMA 3 21 Nov 21:34:12 21:38:46 80° 258° (WSW) 21:43:08 145.822/145.860
DELFI C3 21 Nov 21:36:28 21:40:31 80° 258° (WSW) 21:44:36 145.870
FUNcube-1 21 Nov 21:37:21 21:41:27 47° 74° (ENE) 21:45:29 145.935
RS-15 21 Nov 21:37:41 21:42:24 13° 354° (N) 21:47:10 29.354- 29.394
CUTE 1.7 & AOD 2 21 Nov 21:37:52 21:41:00 20° 265° (W) 21:44:09 437.475
CUBEBUG 2 21 Nov 21:40:40 21:45:01 75° 76° (ENE) 21:49:16 437.445
CUBEBUG 1 21 Nov 21:41:58 21:43:48 12° 65° (ENE) 21:45:37 437.445
UKube-1 21 Nov 21:41:58 21:46:17 63° 259° (WSW) 21:50:37 .
50 SAT 21 Nov 21:42:13 21:45:35 26° 71° (ENE) 21:48:56 437.505
PHONESAT 2.4 21 Nov 21:42:34 21:46:17 83° 202° (SSW) 21:49:59 2401.200-2431.200
UWE-3 21 Nov 21:51:02 21:55:22 85° 77° (ENE) 21:59:37 435.000/436.395/437.385
Oscar 11 21 Nov 21:57:25 22:01:25 38° 262° (W) 22:05:26 145.826/435.025
ANTELSAT 21 Nov 21:59:21 22:01:26 13° 93° (E) 22:03:32 437.575/2403.000
DOVE 4 21 Nov 22:00:48 22:04:46 25° 263° (W) 22:08:34 437.250
ESTCUBE 1 21 Nov 22:03:36 22:07:10 23° 69° (ENE) 22:10:44 437.505/2401.250
HO-68 21 Nov 22:08:26 22:13:20 20° 267° (W) 22:18:17 435.675
DX 1 21 Nov 22:13:26 22:17:08 27° 263° (W) 22:20:52 434.975-435.025
VERMONT LUNAR 21 Nov 22:13:29 22:16:52 37° 210° (SSW) 22:20:13 437.305
QB50P1 21 Nov 22:16:36 22:18:34 13° 93° (E) 22:20:30 145.935-145.965
VELOX 1 21 Nov 22:21:07 22:25:36 79° 257° (WSW) 22:30:07 145.980
GOMX 1 21 Nov 22:23:01 22:24:59 12° 267° (W) 22:26:55 467.674
BEESAT 3 21 Nov 22:36:33 22:39:30 19° 310° (NW) 22:42:29 437.485
ZACube-1 21 Nov 22:37:32 22:41:21 31° 263° (W) 22:45:06 437.345
POPSAT HIP 1 21 Nov 22:39:26 22:42:54 25° 96° (E) 22:46:21 437.405
AISAT 21 Nov 22:44:40 22:48:55 41° 261° (W) 22:53:10 437.250
BEESAT 2 21 Nov 22:48:26 22:51:05 16° 312° (NW) 22:53:45 435.950
BUGSAT 1 21 Nov 22:51:10 22:54:40 27° 97° (E) 22:58:07 437.445
TIGRISAT 21 Nov 22:54:59 22:59:19 57° 101° (E) 23:03:43 435.000
HUMSAT D 21 Nov 22:56:40 23:00:21 30° 263° (W) 23:04:01 437.325/437.525
AIST 2 21 Nov 23:00:49 23:04:13 23° 309° (NW) 23:07:41 435.215
UNISAT 6 21 Nov 23:05:52 23:10:17 79° 102° (ESE) 23:14:48 437.425
POLYITAN 1 21 Nov 23:09:26 23:13:37 58° 101° (E) 23:17:46 437.675
QB50P2 21 Nov 23:13:25 23:17:38 66° 101° (ESE) 23:21:49 145.880/145.840
CUBEBUG 1 21 Nov 23:15:17 23:19:39 56° 260° (W) 23:24:03 437.445
FUNcube-1 21 Nov 23:16:26 23:18:01 12° 268° (W) 23:19:36 145.935
50 SAT 21 Nov 23:17:50 23:20:51 20° 265° (W) 23:23:53 437.505
PHONESAT 2.4 21 Nov 23:22:13 23:24:44 17° 216° (SW) 23:27:14 2401.200-2431.200
DUCHIFAT 1 21 Nov 23:22:37 23:26:51 84° 102° (ESE) 23:31:03 145.980
SPROUT 21 Nov 23:22:57 23:26:52 34° 72° (ENE) 23:30:47 437.525
TISAT 1 21 Nov 23:27:45 23:31:51 46° 73° (ENE) 23:35:57 437.305
ANTELSAT 21 Nov 23:34:11 23:38:26 48° 286° (WNW) 23:42:46 437.575/2403.000
ESTCUBE 1 21 Nov 23:39:55 23:43:52 29° 263° (W) 23:47:51 437.505/2401.250
NANOSAT C BR1 21 Nov 23:41:19 23:45:27 56° 285° (WNW) 23:49:34 145.865
ITUPSAT 1 21 Nov 23:43:58 23:44:29 10° 62° (ENE) 23:45:01 437.325
QB50P1 21 Nov 23:50:39 23:54:39 43° 287° (WNW) 23:58:38 145.935-145.965
RS-15 21 Nov 23:53:03 00:01:10 22° 31° (NNE) 00:09:26 29.354- 29.394
SWISSCUBE 21 Nov 23:54:23 23:57:09 15° 65° (ENE) 23:59:55 437.505
AUBIESAT-1 21 Nov 23:55:00 23:58:16 26° 64° (ENE) 00:01:48 437.475
M-CUBED/EXP-1 PRIME 21 Nov 23:56:42 00:00:06 30° 65° (ENE) 00:03:47 437.505
POPSAT HIP 1 22 Nov 00:15:21 00:18:41 23° 291° (WNW) 00:22:01 437.405
BEESAT 22 Nov 00:24:57 00:29:03 29° 69° (ENE) 00:33:10 436.000
BUGSAT 1 22 Nov 00:26:59 00:29:59 20° 291° (WNW) 00:32:57 437.445
TIGRISAT 22 Nov 00:34:00 00:35:35 12° 295° (WNW) 00:37:11 435.000
POLYITAN 1 22 Nov 00:48:09 00:49:02 11° 295° (WNW) 00:49:56 437.675
SPROUT 22 Nov 01:00:08 01:03:01 17° 266° (W) 01:05:55 437.525
CUSAT 1 22 Nov 01:03:20 01:07:42 70° 262° (W) 01:13:37 437.405
TISAT 1 22 Nov 01:06:02 01:07:54 13° 268° (W) 01:09:47 437.305
DANDE 22 Nov 01:08:42 01:12:54 73° 262° (W) 01:18:39 436.750
ISS 22 Nov 01:12:57 01:16:12 69° 320° (NW) 01:19:29 145.825
ITUPSAT 1 22 Nov 01:16:52 01:21:40 80° 257° (WSW) 01:26:31 437.325
MaSat-1 22 Nov 01:24:43 01:25:48 12° 60° (ENE) 01:26:54 437.345
SWISSCUBE 22 Nov 01:29:53 01:34:32 52° 260° (W) 01:39:14 437.505
AUBIESAT-1 22 Nov 01:30:23 01:33:17 20° 262° (W) 01:36:22 437.475
M-CUBED/EXP-1 PRIME 22 Nov 01:32:40 01:35:16 17° 263° (W) 01:38:01 437.505
STARS 22 Nov 01:36:25 01:39:46 22° 68° (ENE) 01:43:07 437.465
JUGNU 22 Nov 01:58:29 02:01:24 14° 172° (S) 02:04:20 437.505
BEESAT 22 Nov 02:02:54 02:06:50 25° 264° (W) 02:10:48 436.000
RS-15 22 Nov 02:04:43 02:15:59 70° 58° (ENE) 02:27:43 29.354- 29.394
Oscar 19 22 Nov 02:05:51 02:11:02 87° 284° (WNW) 02:16:12 437.125/150
KKS-1 22 Nov 02:06:02 02:10:29 72° 75° (ENE) 02:14:56 437.445
YUBILEINY 22 Nov 02:24:41 02:32:32 38° 86° (E) 02:40:21 435.215
ITAMSAT 1 22 Nov 02:48:40 02:53:52 90° 106° (ESE) 02:59:02 435.822/435.867
ISS 22 Nov 02:52:05 02:53:23 12° 337° (NNW) 02:54:41 145.825
Gurwin Techsat 1B 22 Nov 02:54:03 02:59:17 57° 101° (E) 03:04:29 435.225
MaSat-1 22 Nov 02:59:50 03:00:19 10° 253° (WSW) 03:00:49 437.345
STARS 22 Nov 03:12:12 03:16:04 30° 263° (W) 03:19:56 437.465
HORYU 2 22 Nov 03:14:49 03:19:01 38° 99° (E) 03:23:12 437.375
JUGNU 22 Nov 03:46:12 03:49:39 16° 182° (S) 03:53:07 437.505
SRMSAT 22 Nov 03:48:29 03:51:43 15° 174° (S) 03:54:55 437.500
SO-50 22 Nov 04:11:20 04:15:12 29° 112° (ESE) 04:19:10 436.795
MOZHAYETS 4 22 Nov 04:14:55 04:19:12 42° 73° (ENE) 04:23:32
RS-15 22 Nov 04:18:17 04:27:28 30° 256° (WSW) 04:37:00 29.354- 29.394
YUBILEINY 22 Nov 04:20:54 04:29:07 43° 284° (WNW) 04:37:22 435.215
PCSat 22 Nov 04:33:19 04:34:51 11° 44° (NE) 04:36:22 145.827
Gurwin Techsat 1B 22 Nov 04:35:29 04:38:44 17° 296° (WNW) 04:41:59 435.225
AO-7 22 Nov 04:35:58 04:44:18 67° 105° (ESE) 04:52:36 29.400- 29.500
JAS-2 22 Nov 04:50:47 04:56:53 30° 93° (E) 05:02:22 435.910
HORYU 2 22 Nov 04:52:24 04:55:23 18° 293° (WNW) 04:58:21 437.375
BEESAT 3 22 Nov 05:21:02 05:23:05 13° 46° (NE) 05:25:08 437.485
PRISM 22 Nov 05:27:58 05:32:00 50° 74° (ENE) 05:36:06 437.425
BEESAT 2 22 Nov 05:32:23 05:34:57 16° 48° (NE) 05:37:29 435.950
JUGNU 22 Nov 05:36:06 05:37:53 11° 192° (SSW) 05:39:39 437.505
SRMSAT 22 Nov 05:36:47 05:40:07 15° 185° (S) 05:43:26 437.500
CUTE-I 22 Nov 05:36:59 05:40:11 16° 93° (E) 05:43:21 437.470
O/OREOS (USA 219) 22 Nov 05:43:12 05:44:38 11° 98° (E) 05:46:05 437.305
CUBESAT XI-V 22 Nov 05:44:02 05:47:57 27° 70° (ENE) 05:51:53 437.345
AIST 2 22 Nov 05:47:47 05:49:28 12° 45° (NE) 05:51:09 435.215
SO-50 22 Nov 05:51:50 05:55:41 27° 309° (NW) 05:59:39 436.795
MOZHAYETS 4 22 Nov 05:53:48 05:56:36 16° 267° (W) 05:59:25
STRAND 1 22 Nov 06:05:13 06:10:07 47° 72° (ENE) 06:15:03 437.568
PCSat 22 Nov 06:13:45 06:19:11 74° 62° (ENE) 06:24:35 145.827
AO-7 22 Nov 06:29:52 06:36:23 27° 302° (WNW) 06:42:56 29.400- 29.500
Cubesat XI-IV 22 Nov 06:32:35 06:37:51 59° 101° (E) 06:43:04 437.490
JAS-2 22 Nov 06:35:18 06:42:03 44° 292° (WNW) 06:48:05 435.910
BEESAT 3 22 Nov 06:57:35 07:01:43 61° 243° (WSW) 07:05:47 437.485
PRISM 22 Nov 07:06:39 07:07:50 11° 268° (W) 07:09:01 437.425
AIST 1 22 Nov 07:07:40 07:11:37 32° 78° (ENE) 07:15:31
BEESAT 2 22 Nov 07:09:27 07:13:31 49° 244° (WSW) 07:17:32 435.950
CUTE-I 22 Nov 07:15:21 07:20:32 55° 287° (WNW) 07:25:41 437.470
O/OREOS (USA 219) 22 Nov 07:19:05 07:23:30 55° 293° (WNW) 07:27:54 437.305
CUBESAT XI-V 22 Nov 07:21:17 07:25:16 27° 264° (W) 07:29:17 437.345
AIST 2 22 Nov 07:24:19 07:28:37 74° 242° (WSW) 07:32:49 435.215
ISS 22 Nov 07:43:41 07:46:51 42° 37° (NE) 07:50:01 145.825
STRAND 1 22 Nov 07:46:06 07:49:30 18° 266° (W) 07:52:56 437.568
HO-68 22 Nov 07:51:44 07:54:49 13° 90° (E) 07:57:53 435.675
PCSat 22 Nov 07:59:49 08:01:53 12° 258° (WSW) 08:03:56 145.827
GONETS M04 22 Nov 08:13:50 08:21:51 42° 87° (E) 08:29:55
Cubesat XI-IV 22 Nov 08:14:15 08:17:24 16° 297° (WNW) 08:20:32 437.490
SEEDS 22 Nov 08:29:06 08:31:31 15° 93° (E) 08:33:55 437.485
AIST 1 22 Nov 08:46:06 08:48:59 17° 273° (W) 08:51:50
GOMX 1 22 Nov 08:47:25 08:50:17 18° 95° (E) 08:53:09 467.674
CANX-2 22 Nov 08:49:47 08:53:41 33° 97° (E) 08:57:34 2200.000
BRITE-PL 22 Nov 08:53:33 08:57:13 30° 97° (E) 09:00:53 437.365/2234.400
AAUSAT CUBESAT 2 22 Nov 08:53:59 08:57:14 21° 95° (E) 09:00:29 437.432
COMPASS 1 22 Nov 09:05:45 09:09:37 33° 98° (E) 09:13:28 437.405
DELFI C3 22 Nov 09:21:07 09:23:57 18° 94° (E) 09:26:46 145.870
ISS 22 Nov 09:21:09 09:23:14 16° 232° (SW) 09:25:19 145.825
CUTE 1.7 & AOD 2 22 Nov 09:24:43 09:29:01 82° 102° (ESE) 09:33:19 437.475
FUNcube-1 22 Nov 09:31:14 09:32:14 11° 92° (E) 09:33:14 145.935
POPSAT HIP 1 22 Nov 09:31:23 09:33:46 15° 67° (ENE) 09:36:09 437.405
CINEMA 3 22 Nov 09:32:19 09:35:53 27° 97° (E) 09:39:31 145.822/145.860
UKube-1 22 Nov 09:33:07 09:36:45 26° 97° (E) 09:40:22 .
CUBEBUG 2 22 Nov 09:35:34 09:38:28 18° 95° (E) 09:41:25 437.445
HO-68 22 Nov 09:36:06 09:43:19 89° 106° (ESE) 09:50:29 435.675
BUGSAT 1 22 Nov 09:40:09 09:42:40 16° 67° (ENE) 09:45:12 437.445
UWE-3 22 Nov 09:44:37 09:47:43 20° 95° (E) 09:50:52 435.000/436.395/437.385
Oscar 11 22 Nov 09:47:16 09:51:26 44° 99° (E) 09:55:35 145.826/435.025
TIGRISAT 22 Nov 09:51:52 09:55:47 36° 72° (ENE) 09:59:41 435.000
POLYITAN 1 22 Nov 10:00:40 10:04:28 32° 72° (ENE) 10:08:16 437.675
DOVE 4 22 Nov 10:01:48 10:05:57 76° 284° (WNW) 10:10:11 437.250
UNISAT 6 22 Nov 10:02:50 10:06:59 49° 74° (ENE) 10:11:07 437.425
SEEDS 22 Nov 10:03:30 10:07:29 39° 287° (WNW) 10:11:27 437.485
DX 1 22 Nov 10:03:51 10:08:10 62° 102° (ESE) 10:12:27 434.975-435.025
QB50P2 22 Nov 10:04:20 10:08:14 35° 72° (ENE) 10:12:08 145.880/145.840
GONETS M04 22 Nov 10:10:35 10:18:36 39° 285° (WNW) 10:26:43
DUCHIFAT 1 22 Nov 10:13:01 10:17:04 44° 73° (ENE) 10:21:07 145.980
VELOX 1 22 Nov 10:15:30 10:19:04 24° 96° (E) 10:22:37 145.980
GOMX 1 22 Nov 10:24:52 10:28:27 29° 288° (WNW) 10:32:06 467.674
CANX-2 22 Nov 10:26:26 10:29:21 18° 292° (WNW) 10:32:17 2200.000
ZACube-1 22 Nov 10:28:26 10:32:35 56° 100° (E) 10:36:47 437.345
AAUSAT CUBESAT 2 22 Nov 10:29:19 10:32:52 27° 289° (WNW) 10:36:25 437.432
ANTELSAT 22 Nov 10:30:55 10:35:13 75° 258° (WSW) 10:39:29 437.575/2403.000
NANOSAT C BR1 22 Nov 10:31:28 10:35:44 76° 76° (ENE) 10:39:59 145.865
BRITE-PL 22 Nov 10:32:46 10:35:32 18° 292° (WNW) 10:38:19 437.365/2234.400
AISAT 22 Nov 10:38:33 10:42:48 45° 99° (E) 10:47:01 437.250
QB50P1 22 Nov 10:40:45 10:45:02 84° 258° (WSW) 10:49:19 145.935-145.965
COMPASS 1 22 Nov 10:42:15 10:45:05 18° 292° (WNW) 10:47:55 437.405
HUMSAT D 22 Nov 10:43:30 10:47:32 49° 100° (E) 10:51:36 437.325/437.525
DELFI C3 22 Nov 10:55:38 10:59:17 31° 288° (WNW) 11:02:55 145.870
50 SAT 22 Nov 11:00:22 11:04:24 66° 101° (E) 11:08:27 437.505
SHINDAISAT 22 Nov 11:03:52 11:05:43 71° 120° (ESE) 11:07:36 437.305
FUNcube-1 22 Nov 11:04:45 11:08:51 52° 285° (WNW) 11:13:00 145.935
POPSAT HIP 1 22 Nov 11:05:15 11:09:18 42° 261° (W) 11:13:22 437.405
CUBEBUG 1 22 Nov 11:07:32 11:11:27 32° 97° (E) 11:15:18 437.445
UKube-1 22 Nov 11:09:20 11:12:47 24° 291° (WNW) 11:16:14 .
CINEMA 3 22 Nov 11:09:48 11:12:58 21° 290° (WNW) 11:16:11 145.822/145.860
CUBEBUG 2 22 Nov 11:11:29 11:15:13 31° 288° (WNW) 11:19:01 437.445
BUGSAT 1 22 Nov 11:13:49 11:17:50 40° 261° (W) 11:21:51 437.445
UWE-3 22 Nov 11:20:38 11:24:16 29° 289° (WNW) 11:27:57 435.000/436.395/437.385
Oscar 11 22 Nov 11:24:51 11:27:12 14° 294° (WNW) 11:29:32 145.826/435.025
HO-68 22 Nov 11:26:00 11:30:02 16° 303° (WNW) 11:34:04 435.675
TIGRISAT 22 Nov 11:29:59 11:32:39 16° 266° (W) 11:35:18 435.000
ESTCUBE 1 22 Nov 11:34:51 11:39:24 71° 102° (ESE) 11:43:54 437.505/2401.250
POLYITAN 1 22 Nov 11:37:30 11:40:27 18° 266° (W) 11:43:25 437.675
QB50P2 22 Nov 11:41:31 11:44:14 16° 266° (W) 11:46:58 145.880/145.840
UNISAT 6 22 Nov 11:42:35 11:44:03 12° 268° (W) 11:45:30 437.425
DX 1 22 Nov 11:42:51 11:43:51 11° 296° (WNW) 11:44:50 434.975-435.025
Oscar 19 22 Nov 11:45:07 11:46:36 11° 62° (ENE) 11:48:04 437.125/150
DUCHIFAT 1 22 Nov 11:51:06 11:53:08 13° 267° (W) 11:55:10 145.980
VELOX 1 22 Nov 11:51:54 11:55:35 26° 290° (WNW) 11:59:16 145.980
ZACube-1 22 Nov 12:07:21 12:08:29 11° 295° (WNW) 12:09:37 437.345
